H1 CPF 2 NER 2025 9 2 9 245 01 glonass132 H2 1401201 9132 39620 2025 9 2 0 0 0 2025 9 5 23 45 0 900 1 1 0 0 0 1 H9 10 0 60920 0.00000 0 -24227989.640 4556339.836 -6604855.281 10 0 60920 900.00000 0 -23219602.701 4394160.982 -9631517.621 10 0 60920 1800.00000 0 -21895802.858 4012247.351 -12471313.789 10 0 60920 2700.00000 0 -20307479.846 3378233.482 -15069068.063 10 0 60920 3600.00000 0 -18513070.887 2470759.437 -17374263.490 10 0 60920 4500.00000 0 -16576160.492 1280634.357 -19342027.356 10 0 60920 5400.00000 0 -14562881.155 -188512.341 -20934009.471 10 0 60920 6300.00000 0 -12539223.172 -1920121.702 -22119135.822 10 0 60920 7200.00000 0 -10568365.950 -3885144.809 -22874222.569 10 0 60920 8100.00000 0 -8708142.274 -6043015.128 -23184437.875 10 0 60920 9000.00000 0 -7008741.672 -8343115.124 -23043601.956 10 0 60920 9900.00000 0 -5510749.141 -10726677.672 -22454318.761 10 0 60920 10800.00000 0 -4243601.535 -13129044.323 -21427935.860 10 0 60920 11700.00000 0 -3224526.467 -15482187.069 -19984332.464 10 0 60920 12600.00000 0 -2458008.317 -17717388.727 -18151538.902 10 0 60920 13500.00000 0 -1935803.631 -19767969.904 -15965194.279 10 0 60920 14400.00000 0 -1637504.898 -21571948.109 -13467852.407 10 0 60920 15300.00000 0 -1531628.239 -23074516.951 -10708149.410 10 0 60920 16200.00000 0 -1577178.121 -24230240.782 -7739849.418 10 0 60920 17100.00000 0 -1725621.634 -25004871.927 -4620787.506 10 0 60920 18000.00000 0 -1923187.232 -25376713.673 -1411731.445 10 0 60920 18900.00000 0 -2113388.884 -25337471.538 1824814.378 10 0 60920 19800.00000 0 -2239666.907 -24892557.291 5025838.243 10 0 60920 20700.00000 0 -2248031.906 -24060833.589 8129058.197 10 0 60920 21600.00000 0 -2089598.344 -22873811.097 11074141.717 10 0 60920 22500.00000 0 -1722899.340 -21374333.184 13803883.222 10 0 60920 23400.00000 0 -1115884.002 -19614804.968 16265315.947 10 0 60920 24300.00000 0 -247512.554 -17655042.469 18410736.510 10 0 60920 25200.00000 0 891118.085 -15559833.187 20198622.635 10 0 60920 26100.00000 0 2296165.482 -13396311.023 21594427.032 10 0 60920 27000.00000 0 3950974.912 -11231255.523 22571233.231 10 0 60920 27900.00000 0 5826557.200 -9128427.830 23110262.059 10 0 60920 28800.00000 0 7882591.037 -7146053.581 23201220.414 10 0 60920 29700.00000 0 10068908.073 -5334556.177 22842486.976 10 0 60920 30600.00000 0 12327399.284 -3734633.025 22041132.485 10 0 60920 31500.00000 0 14594263.917 -2375752.855 20812774.997 10 0 60920 32400.00000 0 16802508.429 -1275134.613 19181273.459 10 0 60920 33300.00000 0 18884592.666 -437248.501 17178265.550 10 0 60920 34200.00000 0 20775114.451 146141.732 14842558.483 10 0 60920 35100.00000 0 22413422.123 495398.386 12219383.904 10 0 60920 36000.00000 0 23746047.402 641916.587 9359530.469 10 0 60920 36900.00000 0 24728858.006 626564.651 6318369.983 10 0 60920 37800.00000 0 25328840.862 497723.742 3154794.946 10 0 60920 38700.00000 0 25525441.664 309009.252 -69912.805 10 0 60920 39600.00000 0 25311404.683 116769.687 -3293261.188 10 0 60920 40500.00000 0 24693077.258 -22531.703 -6452752.445 10 0 60920 41400.00000 0 23690165.511 -54942.160 -9487090.277 10 0 60920 42300.00000 0 22334950.594 68459.437 -12337366.327 10 0 60920 43200.00000 0 20670997.231 389252.368 -14948203.090 10 0 60920 44100.00000 0 18751407.515 939673.139 -17268831.083 10 0 60920 45000.00000 0 16636692.025 1741009.413 -19254079.121 10 0 60920 45900.00000 0 14392346.333 2802458.052 -20865258.320 10 0 60920 46800.00000 0 12086233.470 4120497.284 -22070922.282 10 0 60920 47700.00000 0 9785881.141 5678801.492 -22847488.271 10 0 60920 48600.00000 0 7555806.239 7448704.446 -23179706.774 10 0 60920 49500.00000 0 5454978.184 9390193.764 -23060969.683 10 0 60920 50400.00000 0 3534527.064 11453396.900 -22493450.311 10 0 60920 51300.00000 0 1835792.406 13580498.118 -21488071.740 10 0 60920 52200.00000 0 388794.253 15708007.457 -20064303.200 10 0 60920 53100.00000 0 -788809.397 17769287.409 -18249787.655 10 0 60920 54000.00000 0 -1692235.218 19697231.734 -16079807.164 10 0 60920 54900.00000 0 -2329536.122 21426983.944 -13596595.917 10 0 60920 55800.00000 0 -2721014.024 22898580.798 -10848514.212 10 0 60920 56700.00000 0 -2898109.567 24059409.026 -7889099.640 10 0 60920 57600.00000 0 -2901816.988 24866371.137 -4776014.507 10 0 60920 58500.00000 0 -2780692.729 25287668.425 -1569910.959 10 0 60920 59400.00000 0 -2588543.859 25304125.583 1666762.887 10 0 60920 60300.00000 0 -2381896.080 24910000.980 4870991.221 10 0 60920 61200.00000 0 -2217350.411 24113248.718 7980427.891 10 0 60920 62100.00000 0 -2148942.183 22935222.077 10934617.472 10 0 60920 63000.00000 0 -2225615.489 21409831.825 13676175.394 10 0 60920 63900.00000 0 -2488920.935 19582195.937 16151903.492 10 0 60920 64800.00000 0 -2971034.488 17506838.679 18313819.253 10 0 60920 65700.00000 0 -3693181.181 15245515.597 20120079.110 10 0 60920 66600.00000 0 -4664529.916 12864756.266 21535778.660 10 0 60920 67500.00000 0 -5881605.464 10433227.812 22533615.460 10 0 60920 68400.00000 0 -7328241.910 8019029.005 23094402.962 10 0 60920 69300.00000 0 -8976079.156 5687026.958 23207427.092 10 0 60920 70200.00000 0 -10785581.528 3496346.020 22870640.002 10 0 60920 71100.00000 0 -12707536.100 1498111.598 22090688.424 10 0 60920 72000.00000 0 -14684968.608 -266459.221 20882776.967 10 0 60920 72900.00000 0 -16655397.858 -1767542.993 19270369.532 10 0 60920 73800.00000 0 -18553335.629 -2987711.480 17284734.652 10 0 60920 74700.00000 0 -20312929.054 -3922409.664 14964343.331 10 0 60920 75600.00000 0 -21870636.479 -4579891.940 12354130.398 10 0 60920 76500.00000 0 -23167826.327 -4980620.444 9504632.820 10 0 60920 77400.00000 0 -24153191.359 -5156151.600 6471020.745 10 0 60920 78300.00000 0 -24784878.107 -5147558.083 3312039.020 10 0 60920 79200.00000 0 -25032242.716 -5003452.687 88878.784 10 0 60920 80100.00000 0 -24877159.587 -4777697.208 -3135999.766 10 0 60920 81000.00000 0 -24314827.575 -4526892.679 -6300071.219 10 0 60920 81900.00000 0 -23354039.129 -4307756.674 -9341952.508 10 0 60920 82800.00000 0 -22016900.035 -4174498.300 -12202590.979 10 0 60920 83700.00000 0 -20338010.211 -4176301.887 -14826409.980 10 0 60920 84600.00000 0 -18363138.506 -4355026.064 -17162389.775 10 0 60920 85500.00000 0 -16147445.586 -4743216.162 -19165062.576 10 0 60921 0.00000 0 -13753328.178 -5362514.860 -20795402.050 10 0 60921 900.00000 0 -11247972.279 -6222539.961 -22021590.516 10 0 60921 1800.00000 0 -8700719.851 -7320277.462 -22819646.395 10 0 60921 2700.00000 0 -6180353.937 -8640018.500 -23173902.114 10 0 60921 3600.00000 0 -3752418.123 -10153844.120 -23077320.263 10 0 60921 4500.00000 0 -1476680.763 -11822639.722 -22531642.047 10 0 60921 5400.00000 0 595150.161 -13597598.325 -21547364.136 10 0 60921 6300.00000 0 2421366.074 -15422150.953 -20143543.500 10 0 60921 7200.00000 0 3971769.670 -17234244.086 -18347433.191 10 0 60921 8100.00000 0 5228696.404 -18968869.033 -16193955.472 10 0 60921 9000.00000 0 6187503.111 -20560736.978 -13725022.049 10 0 60921 9900.00000 0 6856503.733 -21946986.799 -10988714.474 10 0 60921 10800.00000 0 7256355.796 -23069810.956 -8038340.888 10 0 60921 11700.00000 0 7418924.726 -23878887.983 -4931387.975 10 0 60921 12600.00000 0 7385675.492 -24333518.084 -1728389.521 10 0 60921 13500.00000 0 7205661.374 -24404371.023 1508265.214 10 0 60921 14400.00000 0 6933196.918 -24074772.052 4715558.748 10 0 60921 15300.00000 0 6625315.530 -23341471.478 7831082.935 10 0 60921 16200.00000 0 6339121.190 -22214865.696 10794261.455 10 0 60921 17100.00000 0 6129147.924 -20718660.912 13547532.517 10 0 60921 18000.00000 0 6044839.912 -18888994.619 16037468.083 10 0 60921 18900.00000 0 6128259.400 -16773052.670 18215807.772 10 0 60921 19800.00000 0 6412119.454 -14427240.883 20040387.707 10 0 60921 20700.00000 0 6918224.287 -11914988.493 21475947.049 10 0 60921 21600.00000 0 7656382.349 -9304275.575 22494797.741 10 0 60921 22500.00000 0 8623837.237 -6664987.513 23077345.912 10 0 60921 23400.00000 0 9805239.630 -4066206.121 23212456.276 10 0 60921 24300.00000 0 11173160.977 -1573548.985 22897653.929 10 0 60921 25200.00000 0 12689127.150 753333.939 22139160.830 10 0 60921 26100.00000 0 14305128.957 2863004.354 20951767.178 10 0 60921 27000.00000 0 15965546.790 4714129.137 19358540.673 10 0 60921 27900.00000 0 17609409.814 6276946.797 17390379.396 10 0 60921 28800.00000 0 19172896.234 7534247.892 15085416.687 10 0 60921 29700.00000 0 20591971.324 8481830.380 12488288.954 10 0 60921 30600.00000 0 21805054.017 9128412.436 9649279.713 10 0 60921 31500.00000 0 22755601.488 9495007.461 6623355.524 10 0 60921 32400.00000 0 23394504.220 9613788.222 3469111.495 10 0 60921 33300.00000 0 23682191.655 9526488.155 247645.833 10 0 60921 34200.00000 0 23590360.106 9282407.114 -2978615.491 10 0 60921 35100.00000 0 23103250.076 8936105.395 -6147121.802 10 0 60921 36000.00000 0 22218418.589 8544883.025 -9196405.643 10 0 60921 36900.00000 0 20946972.962 8166150.460 -12067272.348 10 0 60921 37800.00000 0 19313254.834 7854801.601 -14703948.281 10 0 60921 38700.00000 0 17353986.040 7660700.178 -17055165.457 10 0 60921 39600.00000 0 15116910.478 7626386.044 -19075161.315 10 0 60921 40500.00000 0 12658987.117 7785098.903 -20724574.011 10 0 60921 41400.00000 0 10044208.160 8159203.895 -21971215.531 10 0 60921 42300.00000 0 7341132.175 8759086.754 -22790707.169 10 0 60921 43200.00000 0 4620234.038 9582566.660 -23166964.506 10 0 60921 44100.00000 0 1951181.425 10614853.237 -23092521.827 10 0 60921 45000.00000 0 -599849.110 11829051.235 -22568688.917 10 0 60921 45900.00000 0 -2972704.803 13187193.311 -21605536.356 10 0 60921 46800.00000 0 -5115532.590 14641758.888 -20221708.740 10 0 60921 47700.00000 0 -6986703.178 16137616.236 -18444068.633 10 0 60921 48600.00000 0 -8556302.901 17614306.699 -16307177.451 10 0 60921 49500.00000 0 -9807131.058 19008575.068 -13852622.904 10 0 60921 50400.00000 0 -10735161.268 20257039.196 -11128205.887 10 0 60921 51300.00000 0 -11349448.158 21298885.658 -8187002.820 10 0 60921 52200.00000 0 -11671484.388 22078476.808 -5086322.203 10 0 60921 53100.00000 0 -11734036.477 22547758.105 -1886576.672 10 0 60921 54000.00000 0 -11579510.345 22668363.080 1349906.325 10 0 60921 54900.00000 0 -11257917.552 22413326.192 4560110.705 10 0 60921 55800.00000 0 -10824530.283 21768330.748 7681569.443 10 0 60921 56700.00000 0 -10337326.241 20732439.064 10653588.449 10 0 60921 57600.00000 0 -9854333.271 19318274.289 13418431.780 10 0 60921 58500.00000 0 -9430987.332 17551646.757 15922444.483 10 0 60921 59400.00000 0 -9117616.374 15470641.292 18117091.111 10 0 60921 60300.00000 0 -8957156.667 13124204.489 19959890.062 10 0 60921 61200.00000 0 -8983197.782 10570291.822 21415226.374 10 0 60921 62100.00000 0 -9218437.975 7873652.379 22455028.369 10 0 60921 63000.00000 0 -9673614.149 5103343.623 23059296.449 10 0 60921 63900.00000 0 -10346950.388 2330079.262 23216475.269 10 0 60921 64800.00000 0 -11224147.312 -376480.450 22923663.513 10 0 60921 65700.00000 0 -12278912.037 -2950384.796 22186658.467 10 0 60921 66600.00000 0 -13474006.155 -5331886.504 21019835.423 10 0 60921 67500.00000 0 -14762767.874 -7469671.945 19445864.792 10 0 60921 68400.00000 0 -16091044.989 -9322737.141 17495272.523 10 0 60921 69300.00000 0 -17399458.484 -10861833.597 15205852.078 10 0 60921 70200.00000 0 -18625902.882 -12070425.746 12621938.748 10 0 60921 71100.00000 0 -19708179.675 -12945121.677 9793559.516 10 0 60921 72000.00000 0 -20586654.394 -13495560.440 6775473.993 10 0 60921 72900.00000 0 -21206826.686 -13743761.522 3626123.996 10 0 60921 73800.00000 0 -21521706.059 -13722964.269 406511.159 10 0 60921 74700.00000 0 -21493893.642 -13476006.176 -2820976.416 10 0 60921 75600.00000 0 -21097282.244 -13053308.150 -5993766.380 10 0 60921 76500.00000 0 -20318302.561 -12510551.382 -9050310.369 10 0 60921 77400.00000 0 -19156662.048 -11906143.438 -11931275.021 10 0 60921 78300.00000 0 -17625543.983 -11298580.210 -14580692.803 10 0 60921 79200.00000 0 -15751256.621 -10743814.922 -16947050.272 10 0 60921 80100.00000 0 -13572345.284 -10292745.315 -18984292.501 10 0 60921 81000.00000 0 -11138202.630 -9988925.359 -20652723.932 10 0 60921 81900.00000 0 -8507233.346 -9866598.651 -21919787.877 10 0 60921 82800.00000 0 -5744648.282 -9949137.309 -22760709.083 10 0 60921 83700.00000 0 -2919978.614 -10247953.293 -23158986.380 10 0 60921 84600.00000 0 -104412.526 -10761929.329 -23106725.213 10 0 60921 85500.00000 0 2631935.340 -11477394.834 -22604802.827 10 0 60922 0.00000 0 5222708.170 -12368649.113 -21662862.199 10 0 60922 900.00000 0 7607834.690 -13399011.605 -20299133.333 10 0 60922 1800.00000 0 9735791.434 -14522354.640 -18540085.957 10 0 60922 2700.00000 0 11565509.665 -15685056.378 -16419917.947 10 0 60922 3600.00000 0 13067843.699 -16828290.640 -13979890.080 10 0 60922 4500.00000 0 14226540.670 -17890557.231 -11267519.463 10 0 60922 5400.00000 0 15038671.254 -18810345.261 -8335647.518 10 0 60922 6300.00000 0 15514504.000 -19528815.980 -5241401.215 10 0 60922 7200.00000 0 15676829.728 -19992390.626 -2045068.679 10 0 60922 8100.00000 0 15559765.982 -20155132.678 1191087.738 10 0 60922 9000.00000 0 15207093.849 -19980822.731 4404056.464 10 0 60922 9900.00000 0 14670199.360 -19444637.450 7531314.474 10 0 60922 10800.00000 0 14005708.528 -18534361.182 10512052.451 10 0 60922 11700.00000 0 13272917.819 -17251078.935 13288362.480 10 0 60922 12600.00000 0 12531130.155 -15609321.713 15806364.471 10 0 60922 13500.00000 0 11837010.082 -13636658.519 18017249.264 10 0 60922 14400.00000 0 11242070.174 -11372752.698 19878218.464 10 0 60922 15300.00000 0 10790394.666 -8867922.708 21353303.506 10 0 60922 16200.00000 0 10516695.610 -6181267.864 22414049.216 10 0 60922 17100.00000 0 10444782.366 -3378437.281 23040050.024 10 0 60922 18000.00000 0 10586507.582 -529134.668 23219329.931 10 0 60922 18900.00000 0 10941232.630 2295538.070 22948560.318 10 0 60922 19800.00000 0 11495833.810 5025789.285 22233112.630 10 0 60922 20700.00000 0 12225248.164 7595787.225 21086945.857 10 0 60922 21600.00000 0 13093535.522 9946142.737 19532331.544 10 0 60922 22500.00000 0 14055412.163 12026124.034 17599421.780 10 0 60922 23400.00000 0 15058192.099 13795513.456 15325668.282 10 0 60922 24300.00000 0 16044055.176 15226030.942 12755103.255 10 0 60922 25200.00000 0 16952547.671 16302266.574 9937495.072 10 0 60922 26100.00000 0 17723211.286 17022084.592 6927394.224 10 0 60922 27000.00000 0 18298230.910 17396482.983 3783086.981 10 0 60922 27900.00000 0 18624990.473 17448915.113 565476.103 10 0 60922 28800.00000 0 18658429.670 17214102.081 -2663090.496 10 0 60922 29700.00000 0 18363102.305 16736385.659 -5840021.069 10 0 60922 30600.00000 0 17714849.093 16067690.839 -8903688.521 10 0 60922 31500.00000 0 16702013.549 15265183.413 -11794622.831 10 0 60922 32400.00000 0 15326148.456 14388720.883 -14456664.424 10 0 60922 33300.00000 0 13602181.450 13498203.844 -16838056.069 10 0 60922 34200.00000 0 11558030.801 12650939.318 -18892451.966 10 0 60922 35100.00000 0 9233685.382 11899127.217 -20579824.188 10 0 60922 36000.00000 0 6679785.169 11287576.114 -21867248.592 10 0 60922 36900.00000 0 3955759.647 10851745.082 -22729554.477 10 0 60922 37800.00000 0 1127600.024 10616194.811 -23149824.886 10 0 60922 38700.00000 0 -1734643.286 10593514.115 -23119737.205 10 0 60922 39600.00000 0 -4559534.730 10783768.093 -22639736.667 10 0 60922 40500.00000 0 -7276988.527 11174492.209 -21719038.624 10 0 60922 41400.00000 0 -9820950.870 11741233.535 -20375458.624 10 0 60922 42300.00000 0 -12131917.642 12448617.134 -18635072.788 10 0 60922 43200.00000 0 -14159182.502 13251893.159 -16531714.369 10 0 60922 44100.00000 0 -15862721.248 14098899.539 -14106315.737 10 0 60922 45000.00000 0 -17214633.493 14932357.147 -11406108.383 10 0 60922 45900.00000 0 -18200081.322 15692399.844 -8483696.647 10 0 60922 46800.00000 0 -18817685.981 16319231.449 -5396023.664 10 0 60922 47700.00000 0 -19079366.656 16755796.006 -2203250.597 10 0 60922 48600.00000 0 -19009629.387 16950347.039 1032427.865 10 0 60922 49500.00000 0 -18644337.646 16858805.768 4248007.316 10 0 60922 50400.00000 0 -18029018.315 16446807.408 7380911.457 10 0 60922 51300.00000 0 -17216776.546 15691348.223 10370218.531 10 0 60922 52200.00000 0 -16265909.478 14581963.269 13157851.453 10 0 60922 53100.00000 0 -15237321.221 13121385.039 15689707.778 10 0 60922 54000.00000 0 -14191849.462 11325655.438 17916707.337 10 0 60922 54900.00000 0 -13187617.143 9223686.710 19795737.510 10 0 60922 55800.00000 0 -12277520.922 6856290.181 21290478.479 10 0 60922 56700.00000 0 -11506961.673 4274713.739 22372093.639 10 0 60922 57600.00000 0 -10911911.442 1538749.218 23019773.172 10 0 60922 58500.00000 0 -10517396.755 -1285511.647 23221121.746 10 0 60922 59400.00000 0 -10336460.375 -4128179.983 22972384.304 10 0 60922 60300.00000 0 -10369643.508 -6918228.283 22278506.829 10 0 60922 61200.00000 0 -10605008.798 -9586195.679 21153031.873 10 0 60922 62100.00000 0 -11018702.092 -12066829.366 19617831.446 10 0 60922 63000.00000 0 -11576028.744 -14301554.462 17702682.578 10 0 60922 63900.00000 0 -12232999.096 -16240671.567 15444693.554 10 0 60922 64800.00000 0 -12938278.471 -17845192.538 12887591.342 10 0 60922 65700.00000 0 -13635460.268 -19088239.682 10080883.174 10 0 60922 66600.00000 0 -14265567.327 -19955951.342 7078907.576 10 0 60922 67500.00000 0 -14769677.120 -20447857.063 3939792.198 10 0 60922 68400.00000 0 -15091560.898 -20576707.253 724337.684 10 0 60922 69300.00000 0 -15180226.085 -20367764.698 -2505151.583 10 0 60922 70200.00000 0 -14992254.882 -19857587.658 -5686067.862 10 0 60922 71100.00000 0 -14493840.196 -19092355.325 -8756708.738 10 0 60922 72000.00000 0 -13662432.349 -18125805.663 -11657470.905 10 0 60922 72900.00000 0 -12487925.991 -17016871.876 -14332006.017 10 0 60922 73800.00000 0 -10973335.628 -15827116.515 -16728316.145 10 0 60922 74700.00000 0 -9134929.421 -14618070.888 -18799767.428 10 0 60922 75600.00000 0 -7001813.456 -13448591.512 -20506001.998 10 0 60922 76500.00000 0 -4614981.596 -12372344.848 -21813730.205 10 0 60922 77400.00000 0 -2025868.442 -11435526.323 -22697387.302 10 0 60922 78300.00000 0 705536.208 -10674909.970 -23139641.355 10 0 60922 79200.00000 0 3512934.531 -10116311.265 -23131741.894 10 0 60922 80100.00000 0 6326237.179 -9773528.481 -22673701.781 10 0 60922 81000.00000 0 9074245.252 -9647807.843 -21774307.960 10 0 60922 81900.00000 0 11687386.558 -9727855.661 -20450959.990 10 0 60922 82800.00000 0 14100392.284 -9990397.495 -18729338.663 10 0 60922 83700.00000 0 16254802.286 -10401261.123 -16642910.415 10 0 60922 84600.00000 0 18101194.123 -10916937.646 -14232276.625 10 0 60922 85500.00000 0 19601042.219 -11486554.509 -11544380.229 10 0 60923 0.00000 0 20728129.037 -12054176.275 -8631585.471 10 0 60923 900.00000 0 21469449.610 -12561335.150 -5550647.579 10 0 60923 1800.00000 0 21825570.409 -12949682.047 -2361597.282 10 0 60923 2700.00000 0 21810430.253 -13163645.551 873442.180 10 0 60923 3600.00000 0 21450591.299 -13152983.925 4091477.282 10 0 60923 4500.00000 0 20783973.945 -12875121.096 7229881.958 10 0 60923 5400.00000 0 19858130.680 -12297166.625 10227625.180 10 0 60923 6300.00000 0 18728133.579 -11397533.507 13026463.455 10 0 60923 7200.00000 0 17454166.263 -10167085.093 15572074.262 10 0 60923 8100.00000 0 16098923.272 -8609762.686 17815108.213 10 0 60923 9000.00000 0 14724927.286 -6742667.600 19712139.749 10 0 60923 9900.00000 0 13391877.498 -4595594.493 21226498.618 10 0 60923 10800.00000 0 12154140.298 -2210035.823 22328967.164 10 0 60923 11700.00000 0 11058486.806 362300.861 22998331.279 10 0 60923 12600.00000 0 10142170.834 3061401.052 23221775.872 10 0 60923 13500.00000 0 9431426.180 5821197.866 22995118.652 10 0 60923 14400.00000 0 8940444.376 8572080.196 22322879.012 10 0 60923 15300.00000 0 8670873.948 11243551.411 21218181.631 10 0 60923 16200.00000 0 8611860.579 13766929.742 19702497.276 10 0 60923 17100.00000 0 8740625.296 16077979.937 17805225.985 10 0 60923 18000.00000 0 9023555.627 18119368.638 15563130.475 10 0 60923 18900.00000 0 9417763.625 19842843.144 13019630.179 10 0 60923 19800.00000 0 9873045.375 21211044.459 10223968.757 10 0 60923 20700.00000 0 10334159.981 22198880.306 7230270.221 10 0 60923 21600.00000 0 10743332.688 22794401.803 4096500.983 10 0 60923 22500.00000 0 11042877.313 22999147.710 883356.918 10 0 60923 23400.00000 0 11177827.905 22827942.059 -2346903.757 10 0 60923 24300.00000 0 11098468.920 22308153.577 -5531659.840 10 0 60923 25200.00000 0 10762657.038 21478447.603 -8609135.980 10 0 60923 26100.00000 0 10137836.186 20387082.376 -11519597.753 10 0 60923 27000.00000 0 9202659.801 19089820.680 -14206509.971 10 0 60923 27900.00000 0 7948150.562 17647543.933 -16617635.684 10 0 60923 28800.00000 0 6378346.966 16123668.473 -18706054.402 10 0 60923 29700.00000 0 4510407.438 14581472.168 -20431079.556 10 0 60923 30600.00000 0 2374165.271 13081443.365 -21759057.046 10 0 60923 31500.00000 0 11150.689 11678763.483 -22664028.972 10 0 60923 32400.00000 0 -2526881.343 10421029.028 -23128249.145 10 0 60923 33300.00000 0 -5179858.124 9346308.951 -23142539.753 10 0 60923 34200.00000 0 -7881653.127 8481619.308 -22706481.525 10 0 60923 35100.00000 0 -10562613.695 7841879.727 -21828432.900 10 0 60923 36000.00000 0 -13152247.954 7429395.959 -20525376.954 10 0 60923 36900.00000 0 -15581959.227 7233890.621 -18822598.238 10 0 60923 37800.00000 0 -17787713.826 7233080.957 -16753195.057 10 0 60923 38700.00000 0 -19712530.483 7393779.157 -14357436.121 10 0 60923 39600.00000 0 -21308686.804 7673468.377 -11681973.848 10 0 60923 40500.00000 0 -22539549.853 8022287.086 -8778929.670 10 0 60923 41400.00000 0 -23380953.788 8385336.736 -5704869.646 10 0 60923 42300.00000 0 -23822066.622 8705213.678 -2519691.152 10 0 60923 43200.00000 0 -23865710.022 8924656.553 714556.489 10 0 60923 44100.00000 0 -23528119.492 8989195.361 3934893.162 10 0 60923 45000.00000 0 -22838156.232 8849688.495 7078645.595 10 0 60923 45900.00000 0 -21836005.444 8464638.937 10084676.104 10 0 60923 46800.00000 0 -20571417.636 7802190.669 12894577.402 10 0 60923 47700.00000 0 -19101568.765 6841720.236 15453809.486 10 0 60923 48600.00000 0 -17488630.805 5574956.043 17712756.252 10 0 60923 49500.00000 0 -15797156.062 4006578.220 19627681.550 10 0 60923 50400.00000 0 -14091385.771 2154274.067 21161566.822 10 0 60923 51300.00000 0 -12432595.911 48246.998 22284815.183 10 0 60923 52200.00000 0 -10876590.872 -2269800.311 22975809.730 10 0 60923 53100.00000 0 -9471448.754 -4748166.068 23221316.718 10 0 60923 54000.00000 0 -8255611.002 -7327070.626 23016727.337 10 0 60923 54900.00000 0 -7256394.300 -9940919.515 22366134.685 10 0 60923 55800.00000 0 -6488984.980 -12520815.152 21282245.442 10 0 60923 56700.00000 0 -5955956.005 -14997214.136 19786128.586 10 0 60923 57600.00000 0 -5647325.074 -17302621.292 17906806.186 10 0 60923 58500.00000 0 -5541150.105 -19374210.069 15680694.008 10 0 60923 59400.00000 0 -5604636.248 -21156261.982 13150902.190 10 0 60923 60300.00000 0 -5795707.562 -22602325.009 10366408.712 10 0 60923 61200.00000 0 -6064977.277 -23677002.207 7381120.684 10 0 60923 62100.00000 0 -6358034.020 -24357296.812 4252840.655 10 0 60923 63000.00000 0 -6617948.143 -24633458.172 1042156.932 10 0 60923 63900.00000 0 -6787892.921 -24509293.239 -2188721.367 10 0 60923 64800.00000 0 -6813770.376 -24001930.432 -5377162.624 10 0 60923 65700.00000 0 -6646730.923 -23141045.290 -8461321.666 10 0 60923 66600.00000 0 -6245480.227 -21967579.736 -11381336.115 10 0 60923 67500.00000 0 -5578275.187 -20532007.931 -14080487.082 10 0 60923 68400.00000 0 -4624523.722 -18892220.671 -16506301.655 10 0 60923 69300.00000 0 -3375919.393 -17111116.346 -18611575.606 10 0 60923 70200.00000 0 -1837061.167 -15253998.907 -20355296.258 10 0 60923 71100.00000 0 -25530.053 -13385891.404 -21703447.297 10 0 60923 72000.00000 0 2028582.947 -11568877.462 -22629679.450 10 0 60923 72900.00000 0 4283680.152 -9859581.940 -23115833.551 10 0 60923 73800.00000 0 6688152.067 -8306896.374 -23152305.208 10 0 60923 74700.00000 0 9182303.218 -6950044.682 -22738243.267 10 0 60923 75600.00000 0 11700630.102 -5817070.457 -21881577.427 10 0 60923 76500.00000 0 14174357.255 -4923809.520 -20598873.584 10 0 60923 77400.00000 0 16534126.117 -4273391.026 -18915018.899 10 0 60923 78300.00000 0 18712724.517 -3856288.105 -16862741.949 10 0 60923 79200.00000 0 20647742.424 -3650915.653 -14481976.724 10 0 60923 80100.00000 0 22284042.246 -3624749.570 -11819082.600 10 0 60923 81000.00000 0 23575939.529 -3735919.332 -8925935.511 10 0 60923 81900.00000 0 24489001.956 -3935205.443 -5858908.463 10 0 60923 82800.00000 0 25001390.612 -4168355.784 -2677762.081 10 0 60923 83700.00000 0 25104687.076 -4378621.121 555532.062 10 0 60923 84600.00000 0 24804171.825 -4509400.627 3778011.110 10 0 60923 85500.00000 0 24118543.006 -4506883.610 6926958.325 99